TimeCDT,TemperatureF,Dew PointF,Humidity,Sea Level PressureIn,VisibilityMPH,Wind Direction,Wind SpeedMPH,Gust SpeedMPH,PrecipitationIn,Events,Conditions,WindDirDegrees,DateUTC
12:53 AM,21.0,16.0,81,30.44,10.0,Calm,Calm,-,N/A,,Clear,0,2013-03-26 05:53:00
1:53 AM,21.9,14.0,72,30.43,10.0,Calm,Calm,-,N/A,,Clear,0,2013-03-26 06:53:00
2:53 AM,19.9,14.0,78,30.44,10.0,West,4.6,-,N/A,,Clear,270,2013-03-26 07:53:00
3:53 AM,18.0,12.9,81,30.42,10.0,North,3.5,-,N/A,,Clear,360,2013-03-26 08:53:00
4:53 AM,18.0,14.0,84,30.43,10.0,SW,4.6,-,N/A,,Clear,220,2013-03-26 09:53:00
5:53 AM,15.1,12.0,88,30.43,10.0,SSW,6.9,-,N/A,,Clear,210,2013-03-26 10:53:00
6:53 AM,14.0,10.9,88,30.43,10.0,West,4.6,-,N/A,,Clear,260,2013-03-26 11:53:00
7:53 AM,16.0,12.9,88,30.44,10.0,Calm,Calm,-,N/A,,Clear,0,2013-03-26 12:53:00
8:53 AM,21.9,17.1,82,30.45,10.0,WSW,3.5,-,N/A,,Clear,240,2013-03-26 13:53:00
9:53 AM,30.9,19.9,64,30.43,10.0,SSW,3.5,-,N/A,,Clear,210,2013-03-26 14:53:00
10:53 AM,39.2,15.8,39,30.36,10.0,South,9.2,-,N/A,,Clear,180,2013-03-26 15:53:00
11:53 AM,43.0,17.1,35,30.39,10.0,SW,15.0,-,N/A,,Clear,220,2013-03-26 16:53:00
12:53 PM,48.9,18.0,29,30.35,10.0,SSW,19.6,24.2,N/A,,Clear,200,2013-03-26 17:53:00
1:53 PM,51.1,18.0,27,30.29,10.0,South,17.3,26.5,N/A,,Clear,180,2013-03-26 18:53:00
2:53 PM,54.0,18.0,24,30.25,10.0,South,23.0,26.5,N/A,,Clear,190,2013-03-26 19:53:00
3:53 PM,57.0,16.0,20,30.20,10.0,SSW,23.0,31.1,N/A,,Clear,200,2013-03-26 20:53:00
4:53 PM,57.0,17.1,21,30.17,10.0,South,19.6,28.8,N/A,,Clear,180,2013-03-26 21:53:00
5:53 PM,57.0,16.0,20,30.14,10.0,South,23.0,29.9,N/A,,Clear,190,2013-03-26 22:53:00
6:53 PM,55.9,16.0,21,30.13,10.0,South,23.0,27.6,N/A,,Clear,170,2013-03-26 23:53:00
7:53 PM,51.1,17.1,26,30.13,10.0,SSE,18.4,26.5,N/A,,Clear,160,2013-03-27 00:53:00
8:53 PM,48.0,19.0,32,30.12,10.0,SSE,16.1,25.3,N/A,,Clear,150,2013-03-27 01:53:00
9:53 PM,46.0,19.0,34,30.11,10.0,SSE,19.6,-,N/A,,Clear,160,2013-03-27 02:53:00
10:53 PM,46.0,18.0,33,30.08,10.0,South,24.2,34.5,N/A,,Clear,170,2013-03-27 03:53:00
11:53 PM,46.0,18.0,33,30.05,10.0,South,31.1,36.8,N/A,,Clear,170,2013-03-27 04:53:00